This demonstration page uses our WeatherBlox Daily Observations layout. Learn more.

Left ArrowRight Arrow

Hourly Observations for October 18, 2016

Temp ( °F °C ) Dew Point ( °F °C ) Humidity (%) Winds ( mph kmh ) Pressure ( in mb ) Visibility ( mi km ) Precip ( " mm )
12:54 am 00:54 Clear 66 18.9 50 10 56 56 WNW 16 26 29.58 1002 10 16.0934 0 0
1:54 am 01:54 Clear 65 18.3 39 3.9 39 39 WNW 21 33 29.6 1002 10 16.0934 0 0
2:54 am 02:54 Clear 63 17.2 37 2.8 38 38 WNW 15 24 29.64 1004 10 16.0934 0 0
3:54 am 03:54 Clear 61 16.1 39 3.9 44 44 WNW 20 31 29.66 1004 10 16.0934 0 0
4:54 am 04:54 Clear 59 15 42 5.6 54 54 NW 15 24 29.7 1006 10 16.0934 0 0
5:54 am 05:54 Clear 56 13.3 47 8.3 72 72 NW 13 20 29.75 1008 10 16.0934 0 0
6:54 am 06:54 Clear 53 11.7 46 7.8 77 77 NW 16 26 29.79 1009 10 16.0934 0 0
7:54 am 07:54 Sunny 52 11.1 45 7.2 77 77 NNW 16 26 29.83 1010 10 16.0934 0 0
8:54 am 08:54 Sunny 54 12.2 46 7.8 75 75 NNW 13 20 29.88 1012 10 16.0934 0 0
9:54 am 09:54 Sunny 58 14.4 47 8.3 67 67 NW 13 20 29.92 1013 10 16.0934 0 0
10:54 am 10:54 Sunny 61 16.1 47 8.3 60 60 NW 13 20 29.92 1013 10 16.0934 0 0
11:54 am 11:54 Sunny 64 17.8 47 8.3 54 54 NW 10 17 29.93 1013 10 16.0934 0 0
12:54 pm 12:54 Sunny 67 19.4 47 8.3 49 49 WNW 9 15 29.93 1014 10 16.0934 0 0
1:54 pm 13:54 Sunny 69 20.6 46 7.8 44 44 WNW 10 17 29.92 1013 10 16.0934 0 0
2:54 pm 14:54 Sunny 70 21.1 45 7.2 41 41 NW 9 15 29.91 1013 10 16.0934 0 0
3:54 pm 15:54 Sunny 71 21.7 45 7.2 39 39 NNW 9 15 29.91 1013 10 16.0934 0 0
4:54 pm 16:54 Sunny 71 21.7 43 6.1 36 36 NW 8 13 29.91 1013 10 16.0934 0 0
5:54 pm 17:54 Sunny 68 20 43 6.1 40 40 WNW 6 9 29.93 1014 10 16.0934 0 0
6:54 pm 18:54 Clear 65 18.3 44 6.7 47 47 WNW 3 6 29.95 1014 10 16.0934 0 0
7:54 pm 19:54 Clear 55 12.8 44 6.7 67 67 Calm 29.99 1016 10 16.0934 0 0
8:54 pm 20:54 Clear 53 11.7 46 7.8 77 77 N 7 11 30.01 1016 9 14.48406 0 0
9:54 pm 21:54 Clear 52 11.1 46 7.8 80 80 N 6 9 30.02 1017 10 16.0934 0 0
10:54 pm 22:54 Clear 51 10.6 47 8.3 86 86 N 6 9 30.02 1017 10 16.0934 0 0
11:54 pm 23:54 Clear 50 10 46 7.8 86 86 N 6 9 30.03 1017 10 16.0934 0 0

Powered by AerisWeather